STARLINK-37040, 69362

Orbit data source: Space-Track

STARLINK-37040, 69362 is a payload satellite owned by SpaceX/Seattle (US) in LEO that was launched on Thu, 04 Jun 2026 UTC via an FALCON 9 launch vehicle from the Air Force Eastern Test Range (AFETR). Payload-class satellites include a variety of spacecraft equipped with specific instruments for various scientific and technological missions. These include communications satellites like Starlink; space stations such as the ISS; scientific satellites like the Hubble; Earth observation satellites from companies like Planet Labs, Umbra, and HawkEye 360; GPS; miniature CubeSats for education and research; and military/defense satellites.

Loading next visibility...
Identifier
69362, 2026-123K
Orbit
LEO
Country
Flag of USUS
Related business
Manufacturer
SpaceX/Seattle
Mission
Operational spacecraft
Bus & Motor
STARLINK V2MO, Unknown motor
Mass
575 kg wet, ~530 kg dry
Launch date (UTC)
2026-06-04 (2 months ago)
Launch vehicle
FALCON 9
Launch site
Air Force Eastern Test Range (AFETR)
Object type
Payload
Rocket body
Debris
Shape & HBR
BOX + PAN, 17.7 m
Radar Cross Section
Large (>1 m²)

Expand to show TLE details & history
Last TLE update: 2 days ago

TLE from 2 days ago
0 STARLINK-37040
1 69362U 26123K   26206.21010548  .00163539  00000-0  10495-2 0  9995
2 69362  53.1588  51.7485 0000701  92.3890 267.7211 15.75260028  8041
Epoch: 2026-07-25T05:02Z
TLE epoch observation values (Epoch: 2026-07-25T05:02:33.113Z)
Latitude
0.00001°
Longitude
33.18488°
Altitude
344.827 km
Speed
7.703 km/s
True Right ascension
03h 26m 59s
True Declination
0° 00' 00"
Sunlit
Object was in daylight at epoch
Visualization orbit readout
Latitude
Unknown
Longitude
Unknown
Altitude
Unknown
Speed
Unknown
Apparent Right ascension
Unknown
Apparent Declination
Unknown
Sunlit
N/A
Visualization observer readout
Local Sidereal Time
11:35:23
Azimuth
Unknown
Elevation
Unknown
Doppler factor
Unknown
Orbital elements
Apogee altitude
344.624 km
Perigee altitude
343.682 km
Semi-major axis
6,722.29 km
Eccentricity
0.00007
Inclination
53.1588°
RAAN
51.7485°
Arg. of periapsis
92.389°
True anomaly
267.71307°
Mean anomaly
267.7211°
Eccentric anomaly
267.71709°
Mean motion
3.93792 °/min
Orbital period
91.42 mins
BSTAR
0.0010495
Loading maneuver chart data...
Computing Atmospheric mass density...
Loading historical data...
Loading historical data...
Loading historical data...
Loading historical data...
Loading historical data...
Loading historical data...
Loading historical data...

Documentation

Showing up to 5 results
|